When you browse on this site, cookies collect data to enhance your experience and personalize the content and advertising you see.
Visit our Privacy Policy to learn more. By continuing to use the site, you agree to this use of cookies and data.

Hourly Weather Saidpur

Today, 12 August, Wednesday

Time Temperature Precipitation Wind Pressure Humidity
00:00 +31°C° 0 mm 3 mps 748 mmHg 82%
01:00 +31°C° 0.5 mm 3 mps 747 mmHg 83%
02:00 +31°C° 0.5 mm 2 mps 747 mmHg 84%
03:00 +30°C° 0.5 mm 2 mps 746 mmHg 86%
04:00 +30°C° 1.2 mm 2 mps 746 mmHg 86%
05:00 +30°C° 1.2 mm 2 mps 746 mmHg 85%
06:00 +30°C° 0 mm 1 mps 747 mmHg 89%
07:00 +30°C° 1.2 mm 1 mps 747 mmHg 86%
08:00 +31°C° 1.2 mm 1 mps 747 mmHg 84%
09:00 +31°C° 1.2 mm 1 mps 747 mmHg 82%
10:00 +32°C° 0.3 mm 1 mps 747 mmHg 77%
11:00 +34°C° 0.3 mm 2 mps 747 mmHg 72%
12:00 +33°C° 0 mm 1 mps 748 mmHg 70%
13:00 +35°C° 0.8 mm 2 mps 747 mmHg 67%
14:00 +36°C° 0.8 mm 2 mps 747 mmHg 65%
15:00 +36°C° 0.8 mm 3 mps 746 mmHg 63%
16:00 +36°C° 0.5 mm 3 mps 746 mmHg 65%
17:00 +35°C° 0.5 mm 3 mps 746 mmHg 67%
18:00 +35°C° 0.5 mm 3 mps 745 mmHg 69%
19:00 +34°C° 0.1 mm 2 mps 746 mmHg 72%
20:00 +34°C° 0.1 mm 2 mps 747 mmHg 75%
21:00 +32°C° 0.1 mm 2 mps 747 mmHg 78%
22:00 +32°C° 0.7 mm 2 mps 747 mmHg 79%
23:00 +31°C° 0.7 mm 2 mps 747 mmHg 81%

Tomorrow, 13 August, Thursday

Time Temperature Precipitation Wind Pressure Humidity
00:00 +31°C° 0.7 mm 3 mps 747 mmHg 82%
01:00 +31°C° 2.5 mm 3 mps 747 mmHg 82%
02:00 +32°C° 2.5 mm 4 mps 747 mmHg 83%
03:00 +32°C° 2.5 mm 4 mps 746 mmHg 83%
04:00 +30°C° 1.7 mm 4 mps 746 mmHg 85%
05:00 +30°C° 1.7 mm 4 mps 746 mmHg 87%
06:00 +30°C° 1.7 mm 3 mps 746 mmHg 89%
07:00 +30°C° 0.2 mm 3 mps 747 mmHg 86%
08:00 +31°C° 0.2 mm 3 mps 747 mmHg 84%
09:00 +31°C° 0.2 mm 3 mps 748 mmHg 82%
10:00 +33°C° 1.1 mm 3 mps 748 mmHg 78%
11:00 +34°C° 1.1 mm 3 mps 747 mmHg 74%
12:00 +35°C° 1.1 mm 3 mps 747 mmHg 70%
13:00 +35°C° 0.6 mm 3 mps 746 mmHg 69%
14:00 +35°C° 0.6 mm 3 mps 745 mmHg 68%
15:00 +36°C° 0.6 mm 3 mps 744 mmHg 67%
16:00 +35°C° 0.1 mm 3 mps 744 mmHg 68%
17:00 +35°C° 0.1 mm 3 mps 744 mmHg 70%
18:00 +35°C° 0.1 mm 3 mps 744 mmHg 71%
19:00 +34°C° 1 mm 3 mps 744 mmHg 74%
20:00 +34°C° 1 mm 2 mps 745 mmHg 78%
21:00 +32°C° 1 mm 2 mps 746 mmHg 81%
22:00 +32°C° 0.7 mm 2 mps 746 mmHg 81%
23:00 +31°C° 0.7 mm 3 mps 746 mmHg 82%

Day after tomorrow, 14 August, Friday

Time Temperature Precipitation Wind Pressure Humidity
00:00 +31°C° 0.7 mm 3 mps 746 mmHg 83%
01:00 +31°C° 0.8 mm 3 mps 746 mmHg 85%
02:00 +30°C° 0.8 mm 3 mps 745 mmHg 86%
03:00 +30°C° 0.8 mm 3 mps 745 mmHg 88%
04:00 +30°C° 0.1 mm 3 mps 745 mmHg 88%
05:00 +30°C° 0.1 mm 3 mps 745 mmHg 89%
06:00 +29°C° 0.1 mm 2 mps 745 mmHg 90%
07:00 +30°C° 0.3 mm 3 mps 746 mmHg 85%
08:00 +33°C° 0.3 mm 3 mps 746 mmHg 81%
09:00 +34°C° 0.3 mm 4 mps 746 mmHg 76%
10:00 +34°C° 0.7 mm 4 mps 746 mmHg 72%
11:00 +35°C° 0.7 mm 4 mps 746 mmHg 68%
12:00 +36°C° 0.7 mm 4 mps 746 mmHg 64%
13:00 +36°C° 1.6 mm 4 mps 745 mmHg 64%
14:00 +36°C° 1.6 mm 5 mps 744 mmHg 65%
15:00 +36°C° 1.6 mm 5 mps 744 mmHg 65%
16:00 +36°C° 0.4 mm 4 mps 743 mmHg 67%
17:00 +35°C° 0.4 mm 4 mps 743 mmHg 69%
18:00 +35°C° 0.4 mm 3 mps 743 mmHg 70%
19:00 +34°C° 0 mm 3 mps 744 mmHg 73%
20:00 +33°C° 0 mm 3 mps 744 mmHg 76%
21:00 +33°C° 0 mm 3 mps 745 mmHg 78%
22:00 +31°C° 0.8 mm 3 mps 745 mmHg 79%
23:00 +31°C° 0.8 mm 3 mps 745 mmHg 80%

15 August, Saturday

Time Temperature Precipitation Wind Pressure Humidity
00:00 +31°C° 0.8 mm 3 mps 745 mmHg 81%
01:00 +31°C° 0.1 mm 3 mps 744 mmHg 82%
02:00 +30°C° 0.1 mm 3 mps 744 mmHg 84%
03:00 +30°C° 0.1 mm 2 mps 744 mmHg 85%
04:00 +30°C° 0 mm 3 mps 744 mmHg 86%
05:00 +30°C° 0 mm 3 mps 744 mmHg 87%
06:00 +30°C° 0 mm 3 mps 744 mmHg 87%
07:00 +30°C° 0 mm 4 mps 744 mmHg 84%
08:00 +32°C° 0 mm 5 mps 744 mmHg 80%
09:00 +33°C° 0 mm 5 mps 745 mmHg 76%
10:00 +34°C° 0.3 mm 5 mps 744 mmHg 72%
11:00 +35°C° 0.3 mm 6 mps 744 mmHg 67%
12:00 +36°C° 0.3 mm 6 mps 744 mmHg 62%
13:00 +36°C° 0 mm 6 mps 743 mmHg 62%
14:00 +38°C° 0 mm 6 mps 743 mmHg 61%
15:00 +37°C° 0 mm 5 mps 742 mmHg 60%
16:00 +36°C° 0.1 mm 5 mps 742 mmHg 63%
17:00 +36°C° 0.1 mm 5 mps 742 mmHg 65%
18:00 +35°C° 0.1 mm 4 mps 742 mmHg 67%
19:00 +34°C° 1 mm 4 mps 743 mmHg 71%
20:00 +33°C° 1 mm 5 mps 744 mmHg 75%
21:00 +32°C° 1 mm 5 mps 745 mmHg 79%
22:00 +32°C° 0.6 mm 5 mps 745 mmHg 81%
23:00 +30°C° 0.6 mm 5 mps 745 mmHg 83%

16 August, Sunday

Time Temperature Precipitation Wind Pressure Humidity
00:00 +30°C° 0.6 mm 5 mps 745 mmHg 85%
01:00 +30°C° 0 mm 5 mps 745 mmHg 86%
02:00 +29°C° 0 mm 5 mps 744 mmHg 87%
03:00 +29°C° 0 mm 5 mps 744 mmHg 88%
04:00 +29°C° 0.1 mm 5 mps 744 mmHg 88%
05:00 +29°C° 0.1 mm 5 mps 744 mmHg 88%
06:00 +29°C° 0.1 mm 5 mps 744 mmHg 88%
07:00 +30°C° 0.1 mm 6 mps 745 mmHg 85%
08:00 +30°C° 0.1 mm 6 mps 745 mmHg 82%
09:00 +32°C° 0.1 mm 7 mps 746 mmHg 79%
10:00 +33°C° 0.1 mm 7 mps 745 mmHg 74%
11:00 +34°C° 0.1 mm 7 mps 745 mmHg 70%
12:00 +35°C° 0.1 mm 7 mps 745 mmHg 66%
13:00 +36°C° 0.3 mm 7 mps 744 mmHg 64%
14:00 +36°C° 0.3 mm 7 mps 743 mmHg 63%
15:00 +36°C° 0.3 mm 6 mps 743 mmHg 61%
16:00 +36°C° 0.5 mm 6 mps 743 mmHg 64%
17:00 +35°C° 0.5 mm 5 mps 743 mmHg 67%
18:00 +35°C° 0.5 mm 5 mps 743 mmHg 69%
19:00 +34°C° 0.8 mm 5 mps 743 mmHg 73%
20:00 +33°C° 0.8 mm 5 mps 744 mmHg 76%
21:00 +32°C° 0.8 mm 5 mps 745 mmHg 80%
22:00 +32°C° 0.9 mm 5 mps 745 mmHg 81%
23:00 +32°C° 0.9 mm 5 mps 745 mmHg 83%

17 August, Monday

Time Temperature Precipitation Wind Pressure Humidity
00:00 +30°C° 0.9 mm 5 mps 745 mmHg 84%
01:00 +30°C° 0.1 mm 5 mps 744 mmHg 86%
02:00 +30°C° 0.1 mm 5 mps 744 mmHg 87%
03:00 +29°C° 0.1 mm 5 mps 744 mmHg 88%
04:00 +29°C° 0.1 mm 5 mps 744 mmHg 89%
05:00 +29°C° 0.1 mm 5 mps 744 mmHg 89%
06:00 +29°C° 0.1 mm 5 mps 744 mmHg 90%
07:00 +30°C° 0.1 mm 5 mps 745 mmHg 86%
08:00 +30°C° 0.1 mm 6 mps 745 mmHg 83%
09:00 +32°C° 0.1 mm 6 mps 746 mmHg 79%
10:00 +34°C° 0.1 mm 6 mps 745 mmHg 73%
11:00 +35°C° 0.1 mm 6 mps 745 mmHg 68%
12:00 +36°C° 0.1 mm 6 mps 745 mmHg 62%
13:00 +36°C° 0.7 mm 6 mps 744 mmHg 61%
14:00 +37°C° 0.7 mm 5 mps 744 mmHg 61%
15:00 +37°C° 0.7 mm 5 mps 743 mmHg 60%
16:00 +36°C° 1 mm 5 mps 743 mmHg 63%
17:00 +35°C° 1 mm 4 mps 743 mmHg 66%
18:00 +35°C° 1 mm 4 mps 743 mmHg 70%
19:00 +34°C° 1.6 mm 4 mps 744 mmHg 73%
20:00 +33°C° 1.6 mm 4 mps 745 mmHg 76%
21:00 +32°C° 1.6 mm 4 mps 745 mmHg 79%
22:00 +32°C° 1.3 mm 4 mps 745 mmHg 81%
23:00 +32°C° 1.3 mm 4 mps 746 mmHg 83%
Show more